TimeCST,TemperatureF,Dew PointF,Humidity,Sea Level PressureIn,VisibilityMPH,Wind Direction,Wind SpeedMPH,Gust SpeedMPH,PrecipitationIn,Events,Conditions,WindDirDegrees,DateUTC
12:55 AM,36.0,19.9,52,30.32,10.0,NW,5.8,-,N/A,,Clear,310,2012-12-22 06:55:00
1:55 AM,34.7,19.9,55,30.32,10.0,WNW,6.9,-,N/A,,Clear,300,2012-12-22 07:55:00
2:55 AM,33.1,19.9,59,30.32,10.0,NW,5.8,-,N/A,,Clear,310,2012-12-22 08:55:00
3:55 AM,29.8,20.7,69,30.32,10.0,NW,4.6,-,N/A,,Clear,320,2012-12-22 09:55:00
4:55 AM,26.2,19.8,76,30.33,10.0,NW,5.8,-,N/A,,Clear,320,2012-12-22 10:55:00
5:55 AM,26.4,19.8,76,30.35,10.0,NW,4.6,-,N/A,,Clear,320,2012-12-22 11:55:00
6:55 AM,26.2,19.4,75,30.38,10.0,NW,3.5,-,N/A,,Clear,310,2012-12-22 12:55:00
7:55 AM,33.6,20.7,59,30.40,10.0,NW,5.8,-,N/A,,Clear,320,2012-12-22 13:55:00
8:55 AM,39.6,23.2,52,30.41,10.0,North,5.8,-,N/A,,Clear,360,2012-12-22 14:55:00
9:55 AM,47.3,19.6,33,30.41,10.0,North,12.7,-,N/A,,Clear,10,2012-12-22 15:55:00
10:55 AM,51.1,17.8,27,30.38,10.0,North,11.5,-,N/A,,Clear,360,2012-12-22 16:55:00
11:55 AM,55.8,14.9,20,30.34,10.0,NNE,9.2,18.4,N/A,,Clear,20,2012-12-22 17:55:00
12:55 PM,57.7,14.7,18,30.31,10.0,North,8.1,-,N/A,,Clear,350,2012-12-22 18:55:00
1:55 PM,59.2,18.5,21,30.29,10.0,North,8.1,-,N/A,,Clear,350,2012-12-22 19:55:00
2:55 PM,59.5,18.5,20,30.29,10.0,NNW,6.9,-,N/A,,Clear,340,2012-12-22 20:55:00
3:55 PM,59.0,18.9,21,30.28,10.0,North,8.1,-,N/A,,Clear,350,2012-12-22 21:55:00
4:55 PM,52.9,27.5,38,30.28,10.0,Calm,Calm,-,N/A,,Clear,0,2012-12-22 22:55:00
5:55 PM,43.5,27.7,54,30.30,10.0,Calm,Calm,-,N/A,,Clear,0,2012-12-22 23:55:00
6:55 PM,37.2,28.9,72,30.29,10.0,Calm,Calm,-,N/A,,Clear,0,2012-12-23 00:55:00
7:55 PM,36.0,29.5,77,30.29,10.0,Calm,Calm,-,N/A,,Clear,0,2012-12-23 01:55:00
8:55 PM,35.8,28.4,75,30.30,10.0,Calm,Calm,-,N/A,,Clear,0,2012-12-23 02:55:00
9:55 PM,32.0,26.1,79,30.30,10.0,Calm,Calm,-,N/A,,Clear,0,2012-12-23 03:55:00
10:55 PM,30.6,26.1,83,30.28,10.0,Calm,Calm,-,N/A,,Clear,0,2012-12-23 04:55:00
11:55 PM,31.1,26.6,83,30.27,10.0,Calm,Calm,-,N/A,,Clear,0,2012-12-23 05:55:00